COSMOS 2491 DEB, 47111

Orbit data source: Space-Track

COSMOS 2491 DEB, 47111 is space debris in LEO originally from a launch on Wed, 25 Dec 2013 UTC launched from the Plesetsk Missile And Space Complex (PKMTR). Debris objects in space refer to the collection of defunct objects orbiting the Earth. Examples of debris include non-operational satellites, rocket bodies, and fragments generated from explosions, collisions, or faulty payload assembly.

Loading next visibility...
Identifier
47111, 2013-076AG
Orbit
LEO
Country
Flag of CISCIS
Related business
Manufacturer
TsNIIKhM
Mission
Spacecraft
Bus & Motor
Unknown
Mass
Unknown
Launch date (UTC)
2013-12-25 (13 years ago)
Launch vehicle
Unknown
Launch site
Plesetsk Missile And Space Complex (PKMTR)
Object type
Payload
Rocket body
Debris
Shape & HBR
Unknown shape, 0.1 m
Radar Cross Section
Small (<0.1 m²)

Expand to show TLE details & history
Last TLE update: 1 week ago

TLE from 1 week ago
0 COSMOS 2491 DEB
1 47111U 13076AG  26198.52772157  .00001879  00000-0  10629-1 0  9997
2 47111  82.4402 120.9095 0105850  39.2862 321.5846 12.59391279143073
Epoch: 2026-07-17T12:39Z
TLE epoch observation values (Epoch: 2026-07-17T12:39:55.143Z)
Latitude
-0.00009°
Longitude
-4.42381°
Altitude
1,363.791 km
Speed
7.206 km/s
True Right ascension
08h 03m 38s
True Declination
0° 00' 00"
Sunlit
Object was in daylight at epoch
Visualization orbit readout
Latitude
Unknown
Longitude
Unknown
Altitude
Unknown
Speed
Unknown
Apparent Right ascension
Unknown
Apparent Declination
Unknown
Sunlit
N/A
Visualization observer readout
Local Sidereal Time
19:27:19
Azimuth
Unknown
Elevation
Unknown
Doppler factor
Unknown
Orbital elements
Apogee altitude
1,505.36 km
Perigee altitude
1,340.215 km
Semi-major axis
7,800.925 km
Eccentricity
0.01059
Inclination
82.4402°
RAAN
120.9095°
Arg. of periapsis
39.2862°
True anomaly
320.82305°
Mean anomaly
321.5846°
Eccentric anomaly
321.20462°
Mean motion
3.1501 °/min
Orbital period
114.28 mins
BSTAR
0.010629
Loading maneuver chart data...
Computing Atmospheric mass density...
Loading historical data...
Loading historical data...
Loading historical data...
Loading historical data...
Loading historical data...
Loading historical data...
Loading historical data...

Documentation

Showing up to 5 results
|